Location: Caltech
(34.1382°N, 118.1253°W)
Time: 12:11:37
(UTC-07:00)

Cosmos 1697 Rocket - Visible Passes

Search period start: 26 March 2015 00:00
Search period end: 05 April 2015 00:00
Orbit: 831 x 845 km, 71.0° (Epoch: 26 March)

Date Brightness Start Highest point End Pass type
(mag) Time Alt. Az. Time Alt. Az. Time Alt. Az.
27 Mar 6.2 06:19:28 10° E 06:19:33 10° E 06:20:06 10° E visible
03 Apr 3.5 06:04:49 10° S 06:10:19 57° ESE 06:15:54 10° NNE visible
04 Apr 3.6 05:48:48 10° S 05:54:15 53° ESE 05:59:46 10° NNE visible
